CAPE
0 0 0 0 0 0 0 0 0 0 0 0 0 0 0 0 0 0 0 0 0 0
0 0 0 0 0 0 0 0 0 0 0 0 0 0 0 0 0 0 0 0 0 0
0 0 0 0 0 0 0 0 0 0 0 0 0 0 0 0 0 0 0 0 0 0
0 0 0 0 0 0 0 0 0 0 0 0 0 0 0 0 0 0 0 0 0 0
0 0 0 0 0 0 0 0 0 0 0 0 0 0 0 0 0 0 0 0 0 0
0 0 0 0 0 0 0 0 0 0 0 0 0 0 0 0 0 0 0 0 0 0
0 0 0 0 0 0 0 0 0 0 0 0 0 0 0 0 0 0 0 0 0 0
0 0 0 0 0 0 0 0 0 0 0 0 0 0 0 0 0 0 0 0 0 0
0 0 0 0 0 0 0 0 0 0 0 0 0 0 0 0 0 0 0 0 0 0
0 0 0 0 0 0 0 0 0 0 0 0 0 0 2 3 2 3 3 4 5 4
0 0 0 0 0 0 0 0 0 0 0 0 0 0 3 8 6 6 6 4 5 6
0 0 0 0 0 0 0 0 0 0 0 0 0 1 8 12 7 12 10 5 3 5
0 0 0 0 0 0 0 0 0 0 0 0 0 0 9 14 6 0 5 5 4 13
0 0 0 0 0 0 0 0 0 0 0 0 0 0 4 13 11 5 1 0 1 3
CIN
-0 -0 -0 -0 -0 -0 -0 -0 -0 -0 -0 -0 -0 -0 -0 -0 -0 -0 -0 -0 -0 -0
-0 -0 -0 -0 -0 -0 -0 -0 -0 -0 -0 -0 -0 -0 -0 -0 -0 -0 -0 -0 -0 -0
-0 -0 -0 -0 -0 -0 -0 -0 -0 -0 -0 -0 -0 -0 -0 -0 -0 -0 -0 -0 -0 -0
-0 -0 -0 -0 -0 -0 -0 -0 -0 -0 -0 -0 -0 -0 -0 -0 -0 -0 -0 -0 -0 -0
-0 -0 -0 -0 -0 -0 -0 -0 -0 -0 -0 -0 -0 -0 -0 -0 -0 -0 -0 -0 -0 -0
-0 -0 -0 -0 -0 -0 -0 -0 -0 -0 -0 -0 -0 -0 -0 -0 -0 -0 -0 -0 -0 -0
-0 -0 -0 -0 -0 -0 -0 -0 -0 -0 -0 -0 -0 -0 -0 -0 -0 -0 -0 -0 -0 -0
-0 -0 -0 -0 -0 -0 -0 -0 -0 -0 -0 -0 -0 -0 -0 -0 -0 -0 -0 -0 -0 -0
-0 -0 -0 -0 -0 -0 -0 -0 -0 -0 -0 -0 -0 -0 -0 -0 -0 -0 -0 -0 -0 -0
-0 -0 -0 -0 -0 -0 -0 -0 -0 -0 -0 -0 -0 -0 -0 -0 -0 -0 -0 -0 -0 -0
-0 -0 -0 -0 -0 -0 -0 -0 -0 -0 -0 -0 -0 -0 -0 -0 -0 -0 -0 -0 -0 -0
-0 -0 -0 -0 -0 -0 -0 -0 -0 -0 -0 -0 -0 -0 -0 -0 -0 -0 -0 -0 -0 -0
-0 -0 -0 -0 -0 -0 -0 -0 -0 -0 -0 -0 -0 -0 -0 -0 -0 -1 -0 -0 -0 -0
-0 -0 -0 -0 -0 -0 -0 -0 -0 -0 -0 -0 -0 -0 -0 -0 -0 -0 -0 -0 -0 -0
Wind_Speed
8 6 5 6 4 3 4 4 5 7 6 8 7 7 7 4 4 6 5 7 5 4
7 7 6 6 4 3 5 5 6 6 7 7 8 8 7 4 6 5 5 6 6 4
6 5 5 4 4 5 4 4 5 5 5 6 5 6 7 7 7 6 5 5 6 5
4 4 4 4 4 4 3 5 6 6 6 6 6 5 5 5 6 8 9 8 6 9
4 4 5 5 5 6 6 5 6 6 7 7 7 6 6 8 8 9 11 11 11 11
3 2 2 3 3 4 5 5 5 5 6 8 7 8 7 8 9 10 10 11 11 13
2 1 2 2 3 3 3 5 6 7 7 8 8 9 9 9 10 11 12 13 13 13
2 2 3 4 5 5 6 7 8 10 10 10 9 8 12 13 14 15 16 15 15 14
2 2 4 5 6 7 8 9 9 10 10 12 10 21 24 21 15 16 17 17 15 15
4 4 4 5 6 7 8 9 9 10 10 12 13 22 25 26 15 16 16 16 16 15
4 3 4 5 6 7 7 9 10 10 11 12 11 24 26 27 17 15 16 16 16 16
3 3 5 6 7 7 8 9 10 10 11 12 13 24 26 24 15 14 15 15 16 15
1 2 4 6 6 5 5 10 9 11 11 13 15 22 25 21 11 13 12 14 15 21
1 3 5 4 5 6 7 9 9 11 10 12 13 15 23 24 14 12 12 12 11 11
Wind_Direction
79 75 66 57 48 4 40 15 1 9 7 7 13 16 11 0 358 354 349 339 326 308
65 65 63 48 42 13 19 7 0 4 2 359 6 3 359 351 343 348 334 321 319 313
81 80 78 68 41 28 357 354 356 356 352 343 351 348 347 339 333 329 321 312 305 293
96 80 78 60 31 12 350 360 358 343 340 335 337 334 327 318 308 315 311 307 289 290
107 64 46 29 10 2 354 349 342 338 336 332 329 325 320 317 313 304 306 302 298 293
99 48 353 323 322 327 320 308 306 309 302 319 317 314 307 294 298 291 286 286 284 288
101 21 339 323 331 343 331 325 331 329 323 322 320 314 302 299 295 291 289 288 285 284
85 35 23 17 11 353 348 342 333 329 326 325 322 317 320 314 304 299 293 288 286 283
84 61 36 13 352 343 340 336 331 327 321 319 316 317 314 310 302 300 298 298 298 299
79 47 19 350 343 338 330 325 322 318 316 311 309 311 311 311 303 299 295 294 296 297
55 22 349 344 335 325 320 317 313 310 307 300 302 310 310 308 302 297 295 294 294 293
38 348 339 327 318 312 310 306 300 298 304 300 298 306 306 308 301 294 293 292 288 287
156 277 290 288 293 294 284 291 298 296 295 292 292 298 301 306 295 292 290 286 282 280
236 247 256 260 274 286 286 288 290 288 288 284 281 283 298 305 298 291 286 280 280 278